This is the latest recevied weather packets stored in our database for station/object KK7KRZ. If no packets are shown the sender has not sent any weather packets the latest 10 day(s).
| Time | Temp. | Humidity | Pressure | Rain* | Wind** | Luminosity | Snow |
|---|---|---|---|---|---|---|---|
| 1777932819 | 23.89° C | 58% | 1011.9 hPa | 0 mm | - | 595 W/m² | - |
| 1777932516 | 22.78° C | 63% | 1011.9 hPa | 0 mm | - | 620 W/m² | - |
| 1777932213 | 22.78° C | 61% | 1012 hPa | 0 mm | - | 632 W/m² | - |
| 1777931910 | 22.78° C | 59% | 1012 hPa | 0 mm | - | 570 W/m² | - |
| 1777931606 | 22.78° C | 61% | 1012.2 hPa | 0 mm | - | 462 W/m² | - |
| 1777931303 | 21.67° C | 63% | 1012.2 hPa | 0 mm | - | 508 W/m² | - |
| 1777931000 | 21.67° C | 63% | 1012.4 hPa | 0 mm | - | 590 W/m² | - |
| 1777930696 | 21.67° C | 64% | 1012.3 hPa | 0 mm | - | 596 W/m² | - |
| 1777930392 | 22.22° C | 64% | 1012.3 hPa | 0 mm | - | 610 W/m² | - |
| 1777930090 | 21.11° C | 68% | 1012.4 hPa | 0 mm | - | 619 W/m² | - |
| 1777929786 | 20.56° C | 65% | 1012.4 hPa | 0 mm | - | 385 W/m² | - |
| 1777929484 | 20.56° C | 65% | 1012.6 hPa | 0 mm | - | 585 W/m² | - |
| 1777929179 | 20.56° C | 66% | 1012.5 hPa | 0 mm | - | 580 W/m² | - |
| 1777928877 | 20° C | 67% | 1012.7 hPa | 0 mm | - | 595 W/m² | - |
| 1777928574 | 19.44° C | 69% | 1012.8 hPa | 0 mm | - | 633 W/m² | - |
| 1777928271 | 19.44° C | 70% | 1012.7 hPa | 0 mm | - | 645 W/m² | - |
| 1777927969 | 19.44° C | 69% | 1012.9 hPa | 0 mm | - | 668 W/m² | - |
| 1777927667 | 20° C | 67% | 1012.7 hPa | 0 mm | - | 632 W/m² | - |
| 1777927365 | 19.44° C | 67% | 1013.1 hPa | 0 mm | - | 685 W/m² | - |
| 1777927064 | 20° C | 68% | 1013.1 hPa | 0 mm | - | 743 W/m² | - |
| 1777926761 | 19.44° C | 69% | 1012.8 hPa | 0 mm | - | 714 W/m² | - |
| 1777926461 | 18.89° C | 69% | 1013.1 hPa | 0 mm | - | 651 W/m² | - |
| 1777926158 | 18.89° C | 73% | 1013.1 hPa | 0 mm | - | 606 W/m² | - |
| 1777925855 | 18.89° C | 71% | 1013.1 hPa | 0 mm | - | 579 W/m² | - |
| 1777925552 | 18.33° C | 70% | 1012.9 hPa | 0 mm | - | 660 W/m² | - |
* Rain latest hour (hover to see other rain measurements)
** Current wind speed in m/s (hover to see current wind gust speed)